Location: Shepherdstown, WV
(39.4326°N, 77.8042°W)
Time: 06:23:17
(UTC-04:00)

SR - Pass Details

Date: 04 August 2021
Orbit: 581 x 874 km, 66.7° (Epoch: 24 September)

Event Time Altitude Azimuth Distance (km) Brightness Sun altitude
Rises 14:17:04 0° 341° (NNW) 3,093 ? 64.1°
Reaches altitude 10° 14:19:58 10° 357° (N) 2,115 ? 63.8°
Maximum altitude 14:23:40 22° 48° (NE) 1,410 ? 63.4°
Drops below altitude 10° 14:27:09 10° 100° (E) 1,983 ? 62.9°
Sets 14:29:46 0° 116° (ESE) 2,848 ? 62.6°
